Time,TemperatureF,DewpointF,PressureIn,WindDirection,WindDirectionDegrees,WindSpeedMPH,WindSpeedGustMPH,Humidity,HourlyPrecipIn,Conditions,Clouds,dailyrainin,SoftwareType,DateUTC
2013-01-11 00:00:00,59.4,56.5,29.94,West,270,8.9,8.9,90,0.00,,,0.00,WUHU21623XXSP,2013-01-11 06:00:00,
2013-01-11 00:05:00,59.2,56.3,29.94,WNW,292,2.7,8.9,90,0.00,,,0.00,WUHU21623XXSP,2013-01-11 06:05:00,
2013-01-11 00:10:00,58.8,56.1,29.93,WNW,292,4.3,8.9,90,0.00,,,0.00,WUHU21623XXSP,2013-01-11 06:10:00,
2013-01-11 00:16:00,58.8,55.9,29.93,WNW,292,2.2,4.3,90,0.00,,,0.00,WUHU21623XXSP,2013-01-11 06:16:00,
2013-01-11 00:21:00,58.8,55.9,29.94,WNW,292,4.9,4.9,90,0.00,,,0.00,WUHU21623XXSP,2013-01-11 06:21:00,
2013-01-11 00:26:00,58.8,55.9,29.94,WNW,292,2.9,4.9,90,0.00,,,0.00,WUHU21623XXSP,2013-01-11 06:26:00,
2013-01-11 00:31:00,58.8,55.9,29.94,SSE,157,4.3,6.0,90,0.00,,,0.00,WUHU21623XXSP,2013-01-11 06:31:00,
2013-01-11 00:36:00,58.8,55.9,29.94,South,180,5.6,6.0,90,0.00,,,0.00,WUHU21623XXSP,2013-01-11 06:36:00,
2013-01-11 00:42:00,58.8,55.9,29.94,West,270,2.0,5.6,90,0.00,,,0.00,WUHU21623XXSP,2013-01-11 06:42:00,
2013-01-11 00:47:00,58.8,55.6,29.94,WNW,292,3.1,8.9,89,0.00,,,0.00,WUHU21623XXSP,2013-01-11 06:47:00,
2013-01-11 00:52:00,58.8,55.9,29.94,West,270,4.3,6.7,90,0.00,,,0.00,WUHU21623XXSP,2013-01-11 06:52:00,
2013-01-11 00:57:00,58.8,55.9,29.94,West,270,5.6,7.8,90,0.00,,,0.00,WUHU21623XXSP,2013-01-11 06:57:00,
2013-01-11 01:02:00,58.8,55.9,29.95,WNW,292,2.7,7.8,90,0.00,,,0.00,WUHU21623XXSP,2013-01-11 07:02:00,
2013-01-11 01:08:00,58.8,55.9,29.95,WNW,292,2.0,4.5,90,0.00,,,0.00,WUHU21623XXSP,2013-01-11 07:08:00,
2013-01-11 01:13:00,58.8,55.6,29.95,West,270,4.9,6.7,89,0.00,,,0.00,WUHU21623XXSP,2013-01-11 07:13:00,
2013-01-11 01:18:00,58.8,55.6,29.95,SSE,157,4.0,4.9,89,0.00,,,0.00,WUHU21623XXSP,2013-01-11 07:18:00,
2013-01-11 01:24:00,58.8,55.6,29.95,WNW,292,4.0,4.0,89,0.00,,,0.00,WUHU21623XXSP,2013-01-11 07:24:00,
2013-01-11 01:29:00,58.8,55.6,29.94,West,270,0.9,4.0,89,0.00,,,0.00,WUHU21623XXSP,2013-01-11 07:29:00,
2013-01-11 01:34:00,58.8,55.3,29.95,West,270,0.0,0.9,88,0.00,,,0.00,WUHU21623XXSP,2013-01-11 07:34:00,
2013-01-11 01:39:00,58.8,55.3,29.95,WSW,247,4.0,4.0,88,0.00,,,0.00,WUHU21623XXSP,2013-01-11 07:39:00,
2013-01-11 01:44:00,58.6,55.3,29.95,NNW,337,2.5,4.0,88,0.00,,,0.00,WUHU21623XXSP,2013-01-11 07:44:00,
2013-01-11 01:50:00,58.6,55.1,29.96,SW,225,6.3,6.3,88,0.00,,,0.00,WUHU21623XXSP,2013-01-11 07:50:00,
2013-01-11 01:55:00,58.5,54.9,29.96,WNW,292,2.5,6.3,88,0.00,,,0.00,WUHU21623XXSP,2013-01-11 07:55:00,
2013-01-11 02:00:00,58.3,54.8,29.96,WNW,292,6.9,6.9,88,0.00,,,0.00,WUHU21623XXSP,2013-01-11 08:00:00,
2013-01-11 02:06:00,58.3,54.8,29.96,West,270,2.7,6.9,88,0.00,,,0.00,WUHU21623XXSP,2013-01-11 08:06:00,
2013-01-11 02:11:00,58.1,54.6,29.96,WSW,247,0.0,6.3,88,0.00,,,0.00,WUHU21623XXSP,2013-01-11 08:11:00,
2013-01-11 02:16:00,57.9,54.4,29.96,WNW,292,2.7,6.3,88,0.00,,,0.00,WUHU21623XXSP,2013-01-11 08:16:00,
2013-01-11 02:21:00,57.9,54.4,29.97,NW,315,4.9,5.6,88,0.00,,,0.00,WUHU21623XXSP,2013-01-11 08:21:00,
2013-01-11 02:26:00,57.9,54.4,29.96,SW,225,5.1,5.6,88,0.00,,,0.00,WUHU21623XXSP,2013-01-11 08:26:00,
2013-01-11 02:31:00,57.7,53.9,29.96,West,270,1.6,5.1,87,0.00,,,0.00,WUHU21623XXSP,2013-01-11 08:31:00,
2013-01-11 02:36:00,57.7,53.9,29.96,WNW,292,4.9,4.9,87,0.00,,,0.00,WUHU21623XXSP,2013-01-11 08:36:00,
2013-01-11 02:41:00,57.6,53.7,29.97,WNW,292,3.4,4.9,87,0.00,,,0.00,WUHU21623XXSP,2013-01-11 08:41:00,
2013-01-11 02:46:00,57.6,53.7,29.96,WNW,292,2.2,6.0,87,0.00,,,0.00,WUHU21623XXSP,2013-01-11 08:46:00,
2013-01-11 02:51:00,57.6,54.0,29.97,WNW,292,5.1,6.0,88,0.00,,,0.00,WUHU21623XXSP,2013-01-11 08:51:00,
2013-01-11 02:56:00,57.4,53.9,29.97,West,270,6.3,6.3,88,0.00,,,0.00,WUHU21623XXSP,2013-01-11 08:56:00,
2013-01-11 03:01:00,57.4,53.9,29.97,NW,315,4.0,6.3,88,0.00,,,0.00,WUHU21623XXSP,2013-01-11 09:01:00,
2013-01-11 03:06:00,57.4,53.9,29.96,WNW,292,2.5,4.0,88,0.00,,,0.00,WUHU21623XXSP,2013-01-11 09:06:00,
2013-01-11 03:11:00,57.4,53.9,29.97,WSW,247,3.1,3.1,88,0.00,,,0.00,WUHU21623XXSP,2013-01-11 09:11:00,
2013-01-11 03:17:00,57.4,53.9,29.97,WNW,292,1.6,5.1,88,0.00,,,0.00,WUHU21623XXSP,2013-01-11 09:17:00,
2013-01-11 03:22:00,57.4,53.9,29.98,WNW,292,4.3,5.1,88,0.00,,,0.00,WUHU21623XXSP,2013-01-11 09:22:00,
2013-01-11 03:27:00,57.4,53.9,29.97,NW,315,4.3,5.1,88,0.00,,,0.00,WUHU21623XXSP,2013-01-11 09:27:00,
2013-01-11 03:32:00,57.4,53.9,29.97,West,270,2.2,5.1,88,0.00,,,0.00,WUHU21623XXSP,2013-01-11 09:32:00,
2013-01-11 03:37:00,57.4,53.9,29.98,West,270,2.7,5.1,88,0.00,,,0.00,WUHU21623XXSP,2013-01-11 09:37:00,
2013-01-11 03:42:00,57.4,53.9,29.98,NW,315,2.0,3.6,88,0.00,,,0.00,WUHU21623XXSP,2013-01-11 09:42:00,
2013-01-11 03:47:00,57.4,53.9,29.97,WSW,247,2.5,5.8,88,0.00,,,0.00,WUHU21623XXSP,2013-01-11 09:47:00,
2013-01-11 03:52:00,57.4,53.9,29.97,WNW,292,3.1,5.8,88,0.00,,,0.00,WUHU21623XXSP,2013-01-11 09:52:00,
2013-01-11 03:57:00,57.4,53.9,29.96,WNW,292,1.6,3.1,88,0.00,,,0.00,WUHU21623XXSP,2013-01-11 09:57:00,
2013-01-11 04:02:00,57.4,53.9,29.97,NW,315,2.5,5.8,88,0.00,,,0.00,WUHU21623XXSP,2013-01-11 10:02:00,
2013-01-11 04:07:00,57.4,53.9,29.97,WNW,292,4.0,4.0,88,0.00,,,0.00,WUHU21623XXSP,2013-01-11 10:07:00,
2013-01-11 04:13:00,57.4,53.9,29.97,WNW,292,5.4,5.4,88,0.00,,,0.00,WUHU21623XXSP,2013-01-11 10:13:00,
2013-01-11 04:18:00,57.4,53.9,29.97,West,270,3.6,7.4,88,0.00,,,0.00,WUHU21623XXSP,2013-01-11 10:18:00,
2013-01-11 04:24:00,57.4,53.9,29.98,WNW,292,5.4,7.4,88,0.00,,,0.00,WUHU21623XXSP,2013-01-11 10:24:00,
2013-01-11 04:29:00,57.4,53.9,29.97,NW,315,3.8,5.4,88,0.00,,,0.00,WUHU21623XXSP,2013-01-11 10:29:00,
2013-01-11 04:34:00,57.4,53.9,29.98,West,270,5.1,5.1,88,0.00,,,0.00,WUHU21623XXSP,2013-01-11 10:34:00,
2013-01-11 04:39:00,57.0,53.5,29.97,NW,315,4.3,5.1,88,0.00,,,0.00,WUHU21623XXSP,2013-01-11 10:39:00,
2013-01-11 04:44:00,57.0,53.5,29.97,West,270,6.0,6.0,88,0.00,,,0.00,WUHU21623XXSP,2013-01-11 10:44:00,
2013-01-11 04:50:00,57.0,53.5,29.98,West,270,5.6,6.0,88,0.00,,,0.00,WUHU21623XXSP,2013-01-11 10:50:00,
2013-01-11 04:55:00,56.8,53.3,29.97,West,270,1.8,5.6,88,0.00,,,0.00,WUHU21623XXSP,2013-01-11 10:55:00,
2013-01-11 05:01:00,56.5,53.0,29.97,West,270,0.7,5.1,88,0.00,,,0.00,WUHU21623XXSP,2013-01-11 11:01:00,
2013-01-11 05:06:00,56.3,52.8,29.97,WNW,292,2.5,2.9,88,0.00,,,0.00,WUHU21623XXSP,2013-01-11 11:06:00,
2013-01-11 05:11:00,56.1,52.6,29.97,WNW,292,1.6,2.5,88,0.00,,,0.00,WUHU21623XXSP,2013-01-11 11:11:00,
2013-01-11 05:16:00,55.9,52.4,29.97,WSW,247,0.0,3.4,88,0.00,,,0.00,WUHU21623XXSP,2013-01-11 11:16:00,
2013-01-11 05:22:00,55.9,52.4,29.97,West,270,3.6,3.6,88,0.00,,,0.00,WUHU21623XXSP,2013-01-11 11:22:00,
2013-01-11 05:27:00,55.6,52.1,29.97,WNW,292,0.0,3.6,88,0.00,,,0.00,WUHU21623XXSP,2013-01-11 11:27:00,
2013-01-11 05:32:00,55.6,52.1,29.98,WNW,292,0.0,3.4,88,0.00,,,0.00,WUHU21623XXSP,2013-01-11 11:32:00,
2013-01-11 05:37:00,55.4,51.9,29.98,SW,225,0.0,3.4,88,0.00,,,0.00,WUHU21623XXSP,2013-01-11 11:37:00,
2013-01-11 05:43:00,55.2,51.7,29.98,West,270,0.7,3.1,88,0.00,,,0.00,WUHU21623XXSP,2013-01-11 11:43:00,
2013-01-11 05:48:00,55.0,51.5,29.99,NW,315,0.9,0.9,88,0.00,,,0.00,WUHU21623XXSP,2013-01-11 11:48:00,
2013-01-11 05:53:00,54.9,51.7,29.98,WSW,247,0.0,0.9,89,0.00,,,0.00,WUHU21623XXSP,2013-01-11 11:53:00,
2013-01-11 05:58:00,54.7,51.5,29.99,SSW,202,1.3,1.3,89,0.00,,,0.00,WUHU21623XXSP,2013-01-11 11:58:00,
2013-01-11 06:04:00,54.5,51.3,29.99,WNW,292,0.0,1.3,89,0.00,,,0.00,WUHU21623XXSP,2013-01-11 12:04:00,
2013-01-11 06:09:00,54.3,51.1,29.99,SSE,157,0.0,1.3,89,0.00,,,0.00,WUHU21623XXSP,2013-01-11 12:09:00,
2013-01-11 06:14:00,54.1,50.9,29.99,West,270,0.0,0.0,89,0.00,,,0.00,WUHU21623XXSP,2013-01-11 12:14:00,
2013-01-11 06:19:00,54.1,50.9,29.99,WSW,247,0.0,0.0,89,0.00,,,0.00,WUHU21623XXSP,2013-01-11 12:19:00,
2013-01-11 06:24:00,54.0,50.8,30.00,WSW,247,0.0,0.0,89,0.00,,,0.00,WUHU21623XXSP,2013-01-11 12:24:00,
2013-01-11 06:29:00,53.6,50.4,29.99,SSW,202,0.0,2.0,89,0.00,,,0.00,WUHU21623XXSP,2013-01-11 12:29:00,
2013-01-11 06:34:00,53.4,50.2,29.99,South,180,2.0,2.0,89,0.00,,,0.00,WUHU21623XXSP,2013-01-11 12:34:00,
2013-01-11 06:39:00,53.2,50.1,30.00,WSW,247,0.7,2.0,89,0.00,,,0.00,WUHU21623XXSP,2013-01-11 12:39:00,
2013-01-11 06:44:00,53.2,50.1,30.00,South,180,0.0,2.0,89,0.00,,,0.00,WUHU21623XXSP,2013-01-11 12:44:00,
2013-01-11 06:49:00,53.2,50.1,30.00,WSW,247,0.0,0.0,89,0.00,,,0.00,WUHU21623XXSP,2013-01-11 12:49:00,
2013-01-11 06:54:00,52.9,49.7,30.00,WNW,292,0.0,0.0,89,0.00,,,0.00,WUHU21623XXSP,2013-01-11 12:54:00,
2013-01-11 06:59:00,52.9,49.7,30.00,WNW,292,0.0,0.0,89,0.00,,,0.00,WUHU21623XXSP,2013-01-11 12:59:00,
2013-01-11 07:04:00,52.9,49.7,30.00,South,180,0.0,2.7,89,0.00,,,0.00,WUHU21623XXSP,2013-01-11 13:04:00,
2013-01-11 07:09:00,52.9,49.7,30.00,SW,225,0.0,2.7,89,0.00,,,0.00,WUHU21623XXSP,2013-01-11 13:09:00,
2013-01-11 07:14:00,52.7,49.7,30.01,SW,225,2.0,2.0,89,0.00,,,0.00,WUHU21623XXSP,2013-01-11 13:14:00,
2013-01-11 07:20:00,52.7,49.5,30.01,SSW,202,0.0,2.0,89,0.00,,,0.00,WUHU21623XXSP,2013-01-11 13:20:00,
2013-01-11 07:25:00,52.5,49.5,30.01,SSW,202,0.0,0.0,89,0.00,,,0.00,WUHU21623XXSP,2013-01-11 13:25:00,
2013-01-11 07:30:00,52.5,49.3,30.01,South,180,1.8,1.8,89,0.00,,,0.00,WUHU21623XXSP,2013-01-11 13:30:00,
2013-01-11 07:35:00,52.3,49.2,30.01,South,180,0.0,1.8,89,0.00,,,0.00,WUHU21623XXSP,2013-01-11 13:35:00,
2013-01-11 07:41:00,52.3,49.2,30.01,South,180,0.0,1.8,89,0.00,,,0.00,WUHU21623XXSP,2013-01-11 13:41:00,
2013-01-11 07:46:00,52.3,49.2,30.01,West,270,2.9,2.9,89,0.00,,,0.00,WUHU21623XXSP,2013-01-11 13:46:00,
2013-01-11 07:51:00,52.5,49.3,30.01,West,270,0.0,2.9,89,0.00,,,0.00,WUHU21623XXSP,2013-01-11 13:51:00,
2013-01-11 07:57:00,52.5,49.3,30.01,WNW,292,2.0,2.0,89,0.00,,,0.00,WUHU21623XXSP,2013-01-11 13:57:00,
2013-01-11 08:02:00,52.7,49.5,30.01,SSW,202,0.0,2.0,89,0.00,,,0.00,WUHU21623XXSP,2013-01-11 14:02:00,
2013-01-11 08:07:00,52.9,49.7,30.01,West,270,0.4,1.1,89,0.00,,,0.00,WUHU21623XXSP,2013-01-11 14:07:00,
2013-01-11 08:12:00,52.9,49.7,30.01,WNW,292,0.9,0.9,90,0.00,,,0.00,WUHU21623XXSP,2013-01-11 14:12:00,
2013-01-11 08:17:00,53.2,50.4,30.02,WNW,292,0.9,0.9,90,0.00,,,0.00,WUHU21623XXSP,2013-01-11 14:17:00,
2013-01-11 08:22:00,53.4,50.2,30.02,SW,225,0.0,1.1,89,0.00,,,0.00,WUHU21623XXSP,2013-01-11 14:22:00,
2013-01-11 08:28:00,53.4,50.2,30.02,WNW,292,4.0,4.0,89,0.00,,,0.00,WUHU21623XXSP,2013-01-11 14:28:00,
2013-01-11 08:32:00,53.8,50.9,30.03,WSW,247,0.0,4.0,90,0.00,,,0.00,WUHU21623XXSP,2013-01-11 14:32:00,
2013-01-11 08:38:00,54.0,50.8,30.02,WNW,292,1.6,4.0,89,0.00,,,0.00,WUHU21623XXSP,2013-01-11 14:38:00,
2013-01-11 08:43:00,54.1,50.9,30.03,WNW,292,4.5,4.5,89,0.00,,,0.00,WUHU21623XXSP,2013-01-11 14:43:00,
2013-01-11 08:48:00,54.3,51.1,30.02,West,270,0.0,4.5,89,0.00,,,0.00,WUHU21623XXSP,2013-01-11 14:48:00,
2013-01-11 08:53:00,54.5,51.0,30.02,SSW,202,3.8,4.5,88,0.00,,,0.00,WUHU21623XXSP,2013-01-11 14:53:00,
2013-01-11 08:58:00,54.7,51.2,30.02,SSE,157,1.6,4.0,88,0.00,,,0.00,WUHU21623XXSP,2013-01-11 14:58:00,
2013-01-11 09:03:00,55.0,51.5,30.02,WSW,247,3.1,3.1,88,0.00,,,0.00,WUHU21623XXSP,2013-01-11 15:03:00,
2013-01-11 09:08:00,55.2,51.4,30.02,WNW,292,5.1,6.9,87,0.00,,,0.00,WUHU21623XXSP,2013-01-11 15:08:00,
2013-01-11 09:13:00,55.6,51.7,30.03,WNW,292,3.1,6.9,87,0.00,,,0.00,WUHU21623XXSP,2013-01-11 15:13:00,
2013-01-11 09:18:00,55.9,51.8,30.03,WNW,292,2.2,6.0,86,0.00,,,0.00,WUHU21623XXSP,2013-01-11 15:18:00,
2013-01-11 09:23:00,56.1,51.9,30.03,West,270,5.6,6.0,86,0.00,,,0.00,WUHU21623XXSP,2013-01-11 15:23:00,
2013-01-11 09:28:00,56.3,51.6,30.03,WNW,292,2.2,5.8,85,0.00,,,0.00,WUHU21623XXSP,2013-01-11 15:28:00,
2013-01-11 09:33:00,56.8,52.0,30.03,WNW,292,6.3,6.3,84,0.00,,,0.00,WUHU21623XXSP,2013-01-11 15:33:00,
2013-01-11 09:38:00,56.8,51.7,30.03,WNW,292,2.5,6.3,83,0.00,,,0.00,WUHU21623XXSP,2013-01-11 15:38:00,
2013-01-11 09:43:00,57.0,51.9,30.03,WNW,292,4.0,6.3,83,0.00,,,0.00,WUHU21623XXSP,2013-01-11 15:43:00,
2013-01-11 09:48:00,57.4,51.9,30.03,NW,315,4.7,4.7,82,0.00,,,0.00,WUHU21623XXSP,2013-01-11 15:48:00,
2013-01-11 09:53:00,57.6,52.1,30.03,West,270,3.6,4.9,82,0.00,,,0.00,WUHU21623XXSP,2013-01-11 15:53:00,
2013-01-11 09:58:00,57.7,51.9,30.03,West,270,2.2,4.9,81,0.00,,,0.00,WUHU21623XXSP,2013-01-11 15:58:00,
2013-01-11 10:03:00,57.9,52.1,30.03,SSE,157,0.7,5.8,81,0.00,,,0.00,WUHU21623XXSP,2013-01-11 16:03:00,
2013-01-11 10:08:00,58.3,52.2,30.03,SSE,157,9.6,9.6,80,0.00,,,0.00,WUHU21623XXSP,2013-01-11 16:08:00,
2013-01-11 10:13:00,58.3,51.8,30.03,SSE,157,4.5,9.6,79,0.00,,,0.00,WUHU21623XXSP,2013-01-11 16:13:00,
2013-01-11 10:18:00,58.6,51.4,30.03,SW,225,11.9,12.1,77,0.00,,,0.00,WUHU21623XXSP,2013-01-11 16:18:00,
2013-01-11 10:23:00,58.8,51.6,30.03,WNW,292,5.4,12.1,77,0.00,,,0.00,WUHU21623XXSP,2013-01-11 16:23:00,
2013-01-11 10:28:00,58.8,51.6,30.03,NW,315,2.7,5.4,76,0.00,,,0.00,WUHU21623XXSP,2013-01-11 16:28:00,
2013-01-11 10:33:00,58.8,50.9,30.03,West,270,6.5,6.5,75,0.00,,,0.00,WUHU21623XXSP,2013-01-11 16:33:00,
2013-01-11 10:38:00,58.8,50.9,30.03,NNW,337,4.0,6.5,75,0.00,,,0.00,WUHU21623XXSP,2013-01-11 16:38:00,
2013-01-11 10:43:00,59.0,51.1,30.03,SW,225,2.9,6.5,75,0.00,,,0.00,WUHU21623XXSP,2013-01-11 16:43:00,
2013-01-11 10:48:00,59.5,50.9,30.03,NW,315,6.3,7.4,73,0.00,,,0.00,WUHU21623XXSP,2013-01-11 16:48:00,
2013-01-11 10:53:00,59.7,51.1,30.02,SSW,202,6.9,7.4,73,0.00,,,0.00,WUHU21623XXSP,2013-01-11 16:53:00,
2013-01-11 10:58:00,60.1,51.1,30.02,West,270,6.3,6.9,72,0.00,,,0.00,WUHU21623XXSP,2013-01-11 16:58:00,
2013-01-11 11:03:00,60.4,51.1,30.02,West,270,4.7,8.7,71,0.00,,,0.00,WUHU21623XXSP,2013-01-11 17:03:00,
2013-01-11 11:08:00,60.6,51.3,30.01,SSW,202,4.3,8.7,71,0.00,,,0.00,WUHU21623XXSP,2013-01-11 17:08:00,
2013-01-11 11:13:00,61.0,51.2,30.01,WNW,292,4.3,5.4,70,0.00,,,0.00,WUHU21623XXSP,2013-01-11 17:13:00,
2013-01-11 11:19:00,61.3,51.2,30.01,West,270,2.5,4.3,69,0.00,,,0.00,WUHU21623XXSP,2013-01-11 17:19:00,
2013-01-11 11:24:00,61.5,51.3,30.01,WNW,292,3.8,11.2,69,0.00,,,0.00,WUHU21623XXSP,2013-01-11 17:24:00,
2013-01-11 11:29:00,62.1,51.4,30.01,SW,225,2.5,11.2,68,0.00,,,0.00,WUHU21623XXSP,2013-01-11 17:29:00,
2013-01-11 11:34:00,62.2,51.5,30.01,SSE,157,4.7,6.0,68,0.00,,,0.00,WUHU21623XXSP,2013-01-11 17:34:00,
2013-01-11 11:39:00,62.4,50.9,30.01,West,270,5.8,6.0,66,0.00,,,0.00,WUHU21623XXSP,2013-01-11 17:39:00,
2013-01-11 11:44:00,62.4,50.9,30.01,SSW,202,1.1,6.0,66,0.00,,,0.00,WUHU21623XXSP,2013-01-11 17:44:00,
2013-01-11 11:49:00,63.0,51.4,30.00,WNW,292,7.4,7.4,66,0.00,,,0.00,WUHU21623XXSP,2013-01-11 17:49:00,
2013-01-11 11:54:00,63.3,51.3,30.00,WNW,292,1.8,7.4,65,0.00,,,0.00,WUHU21623XXSP,2013-01-11 17:54:00,
2013-01-11 11:59:00,63.3,50.9,30.00,North,0,4.3,5.4,64,0.00,,,0.00,WUHU21623XXSP,2013-01-11 17:59:00,
2013-01-11 12:04:00,63.7,51.2,30.00,SSE,157,0.7,4.3,64,0.00,,,0.00,WUHU21623XXSP,2013-01-11 18:04:00,
2013-01-11 12:09:00,63.7,50.8,29.99,SSW,202,6.3,6.3,63,0.00,,,0.00,WUHU21623XXSP,2013-01-11 18:09:00,
2013-01-11 12:14:00,64.0,51.1,29.99,SSE,157,4.3,6.3,63,0.00,,,0.00,WUHU21623XXSP,2013-01-11 18:14:00,
2013-01-11 12:20:00,64.2,50.3,29.99,South,180,3.4,4.3,62,0.00,,,0.00,WUHU21623XXSP,2013-01-11 18:20:00,
2013-01-11 12:25:00,64.2,50.4,29.99,West,270,6.5,6.5,61,0.00,,,0.00,WUHU21623XXSP,2013-01-11 18:25:00,
2013-01-11 12:30:00,64.2,50.4,29.99,West,270,6.5,6.5,62,0.00,,,0.00,WUHU21623XXSP,2013-01-11 18:30:00,
2013-01-11 12:35:00,64.6,50.8,29.99,NW,315,10.3,10.3,61,0.00,,,0.00,WUHU21623XXSP,2013-01-11 18:35:00,
2013-01-11 12:40:00,64.2,50.6,29.99,WSW,247,6.3,10.3,61,0.00,,,0.00,WUHU21623XXSP,2013-01-11 18:40:00,
2013-01-11 12:45:00,64.6,50.4,29.98,WNW,292,6.7,10.3,61,0.00,,,0.00,WUHU21623XXSP,2013-01-11 18:45:00,
2013-01-11 12:50:00,64.6,50.8,29.98,South,180,7.6,7.6,61,0.00,,,0.00,WUHU21623XXSP,2013-01-11 18:50:00,
2013-01-11 12:55:00,65.3,51.3,29.98,WNW,292,2.5,7.6,61,0.00,,,0.00,WUHU21623XXSP,2013-01-11 18:55:00,
2013-01-11 13:00:00,65.8,51.7,29.98,SSE,157,2.7,2.7,61,0.00,,,0.00,WUHU21623XXSP,2013-01-11 19:00:00,
2013-01-11 13:05:00,66.0,51.8,29.98,NW,315,6.9,6.9,60,0.00,,,0.00,WUHU21623XXSP,2013-01-11 19:05:00,
2013-01-11 13:10:00,65.8,51.3,29.97,West,270,5.6,6.9,58,0.00,,,0.00,WUHU21623XXSP,2013-01-11 19:10:00,
2013-01-11 13:15:00,65.8,51.1,29.98,WNW,292,6.0,6.7,59,0.00,,,0.00,WUHU21623XXSP,2013-01-11 19:15:00,
2013-01-11 13:20:00,65.8,50.6,29.97,WNW,292,6.0,6.7,59,0.00,,,0.00,WUHU21623XXSP,2013-01-11 19:20:00,
2013-01-11 13:25:00,66.0,50.8,29.97,SW,225,1.6,6.0,58,0.00,,,0.00,WUHU21623XXSP,2013-01-11 19:25:00,
2013-01-11 13:30:00,66.0,50.8,29.97,NW,315,0.2,5.6,58,0.00,,,0.00,WUHU21623XXSP,2013-01-11 19:30:00,
2013-01-11 13:35:00,66.4,51.2,29.97,WNW,292,5.4,5.6,58,0.00,,,0.00,WUHU21623XXSP,2013-01-11 19:35:00,
2013-01-11 13:40:00,66.6,51.2,29.97,SW,225,3.8,5.4,59,0.00,,,0.00,WUHU21623XXSP,2013-01-11 19:40:00,
2013-01-11 13:45:00,66.7,51.5,29.96,SSE,157,2.5,3.8,58,0.00,,,0.00,WUHU21623XXSP,2013-01-11 19:45:00,
2013-01-11 13:50:00,66.9,51.7,29.96,SSW,202,5.6,5.6,58,0.00,,,0.00,WUHU21623XXSP,2013-01-11 19:50:00,
2013-01-11 13:56:00,67.1,52.3,29.96,SSE,157,1.1,5.6,59,0.00,,,0.00,WUHU21623XXSP,2013-01-11 19:56:00,
2013-01-11 14:01:00,66.9,52.0,29.97,West,270,2.7,6.3,57,0.00,,,0.00,WUHU21623XXSP,2013-01-11 20:01:00,
2013-01-11 14:06:00,66.7,52.0,29.96,SSE,157,5.4,6.3,59,0.00,,,0.00,WUHU21623XXSP,2013-01-11 20:06:00,
2013-01-11 14:11:00,67.1,51.8,29.96,SSW,202,6.9,6.9,58,0.00,,,0.00,WUHU21623XXSP,2013-01-11 20:11:00,
2013-01-11 14:16:00,67.3,52.0,29.96,SSE,157,7.4,7.4,58,0.00,,,0.00,WUHU21623XXSP,2013-01-11 20:16:00,
2013-01-11 14:21:00,67.5,51.7,29.96,South,180,7.4,7.4,57,0.00,,,0.00,WUHU21623XXSP,2013-01-11 20:21:00,
2013-01-11 14:26:00,67.5,51.7,29.96,SSE,157,6.9,7.4,57,0.00,,,0.00,WUHU21623XXSP,2013-01-11 20:26:00,
2013-01-11 14:31:00,67.6,51.8,29.96,SE,135,5.8,6.9,57,0.00,,,0.00,WUHU21623XXSP,2013-01-11 20:31:00,
2013-01-11 14:36:00,67.6,51.8,29.96,ESE,112,3.1,6.9,57,0.00,,,0.00,WUHU21623XXSP,2013-01-11 20:36:00,
2013-01-11 14:41:00,67.6,51.8,29.95,WSW,247,1.6,4.5,57,0.00,,,0.00,WUHU21623XXSP,2013-01-11 20:41:00,
2013-01-11 14:46:00,67.8,51.3,29.96,WSW,247,1.6,3.1,56,0.00,,,0.00,WUHU21623XXSP,2013-01-11 20:46:00,
2013-01-11 14:51:00,67.8,51.5,29.95,South,180,2.9,2.9,56,0.00,,,0.00,WUHU21623XXSP,2013-01-11 20:51:00,
2013-01-11 14:56:00,67.8,51.0,29.95,SSE,157,1.3,2.9,55,0.00,,,0.00,WUHU21623XXSP,2013-01-11 20:56:00,
2013-01-11 15:01:00,67.6,50.8,29.96,WSW,247,4.7,4.7,55,0.00,,,0.00,WUHU21623XXSP,2013-01-11 21:01:00,
2013-01-11 15:06:00,67.3,50.5,29.96,WSW,247,0.0,4.7,55,0.00,,,0.00,WUHU21623XXSP,2013-01-11 21:06:00,
2013-01-11 15:11:00,66.7,50.0,29.96,SW,225,1.6,5.8,55,0.00,,,0.00,WUHU21623XXSP,2013-01-11 21:11:00,
2013-01-11 15:16:00,66.2,49.9,29.95,WSW,247,3.6,5.8,55,0.00,,,0.00,WUHU21623XXSP,2013-01-11 21:16:00,
2013-01-11 15:21:00,66.0,49.9,29.95,WSW,247,2.2,3.6,56,0.00,,,0.00,WUHU21623XXSP,2013-01-11 21:21:00,
2013-01-11 15:26:00,65.8,50.2,29.95,West,270,3.6,3.6,57,0.00,,,0.00,WUHU21623XXSP,2013-01-11 21:26:00,
2013-01-11 15:31:00,65.8,50.2,29.95,SE,135,1.6,3.6,57,0.00,,,0.00,WUHU21623XXSP,2013-01-11 21:31:00,
2013-01-11 15:37:00,65.8,50.2,29.95,WNW,292,0.0,1.6,57,0.00,,,0.00,WUHU21623XXSP,2013-01-11 21:37:00,
2013-01-11 15:42:00,65.8,50.6,29.95,SSE,157,2.5,2.5,58,0.00,,,0.00,WUHU21623XXSP,2013-01-11 21:42:00,
2013-01-11 15:47:00,65.8,50.6,29.95,East,90,0.0,2.5,58,0.00,,,0.00,WUHU21623XXSP,2013-01-11 21:47:00,
2013-01-11 15:52:00,65.8,50.6,29.95,SSE,157,2.2,2.2,58,0.00,,,0.00,WUHU21623XXSP,2013-01-11 21:52:00,
2013-01-11 15:57:00,65.7,51.0,29.95,South,180,2.9,4.7,59,0.00,,,0.00,WUHU21623XXSP,2013-01-11 21:57:00,
2013-01-11 16:02:00,65.5,50.8,29.94,SSE,157,3.1,4.7,59,0.00,,,0.00,WUHU21623XXSP,2013-01-11 22:02:00,
2013-01-11 16:07:00,66.2,51.5,29.94,SW,225,1.6,3.1,59,0.00,,,0.00,WUHU21623XXSP,2013-01-11 22:07:00,
2013-01-11 16:12:00,66.7,51.5,29.94,South,180,5.4,5.4,58,0.00,,,0.00,WUHU21623XXSP,2013-01-11 22:12:00,
2013-01-11 16:17:00,67.1,51.8,29.94,South,180,3.4,5.4,58,0.00,,,0.00,WUHU21623XXSP,2013-01-11 22:17:00,
2013-01-11 16:22:00,67.3,51.5,29.93,South,180,4.3,5.6,57,0.00,,,0.00,WUHU21623XXSP,2013-01-11 22:22:00,
2013-01-11 16:27:00,67.1,51.3,29.93,SSE,157,2.7,5.6,57,0.00,,,0.00,WUHU21623XXSP,2013-01-11 22:27:00,
2013-01-11 16:32:00,66.9,51.7,29.93,South,180,3.4,3.4,58,0.00,,,0.00,WUHU21623XXSP,2013-01-11 22:32:00,
2013-01-11 16:37:00,67.3,52.0,29.93,SE,135,1.1,3.8,58,0.00,,,0.00,WUHU21623XXSP,2013-01-11 22:37:00,
2013-01-11 16:42:00,67.5,51.7,29.93,South,180,4.9,4.9,57,0.00,,,0.00,WUHU21623XXSP,2013-01-11 22:42:00,
2013-01-11 16:47:00,67.3,51.5,29.93,SE,135,2.7,4.9,57,0.00,,,0.00,WUHU21623XXSP,2013-01-11 22:47:00,
2013-01-11 16:52:00,66.9,51.2,29.94,SSW,202,2.5,4.9,57,0.00,,,0.00,WUHU21623XXSP,2013-01-11 22:52:00,
2013-01-11 16:57:00,66.6,51.0,29.94,SSW,202,0.0,2.5,57,0.00,,,0.00,WUHU21623XXSP,2013-01-11 22:57:00,
2013-01-11 17:03:00,66.0,50.8,29.94,SSE,157,0.0,0.0,58,0.00,,,0.00,WUHU21623XXSP,2013-01-11 23:03:00,
2013-01-11 17:09:00,65.8,51.1,29.94,South,180,0.0,2.0,59,0.00,,,0.00,WUHU21623XXSP,2013-01-11 23:09:00,
2013-01-11 17:14:00,64.8,50.1,29.95,SSW,202,0.0,1.6,59,0.00,,,0.00,WUHU21623XXSP,2013-01-11 23:14:00,
2013-01-11 17:19:00,64.2,50.0,29.95,SW,225,0.0,1.3,60,0.00,,,0.00,WUHU21623XXSP,2013-01-11 23:19:00,
2013-01-11 17:25:00,63.5,49.8,29.95,SW,225,0.0,1.3,61,0.00,,,0.00,WUHU21623XXSP,2013-01-11 23:25:00,
2013-01-11 17:30:00,63.0,49.3,29.95,SW,225,0.0,0.0,61,0.00,,,0.00,WUHU21623XXSP,2013-01-11 23:30:00,
2013-01-11 17:35:00,62.2,49.1,29.95,SW,225,0.0,0.0,62,0.00,,,0.00,WUHU21623XXSP,2013-01-11 23:35:00,
2013-01-11 17:40:00,61.7,48.6,29.94,SW,225,0.0,0.0,62,0.00,,,0.00,WUHU21623XXSP,2013-01-11 23:40:00,
2013-01-11 17:45:00,61.3,48.4,29.94,SW,225,0.0,0.0,63,0.00,,,0.00,WUHU21623XXSP,2013-01-11 23:45:00,
2013-01-11 17:50:00,60.4,47.8,29.94,SW,225,0.0,0.0,63,0.00,,,0.00,WUHU21623XXSP,2013-01-11 23:50:00,
2013-01-11 17:55:00,59.5,47.3,29.94,SW,225,0.0,0.0,64,0.00,,,0.00,WUHU21623XXSP,2013-01-11 23:55:00,
2013-01-11 18:00:00,58.8,47.0,29.94,SSE,157,0.0,0.0,65,0.00,,,0.00,WUHU21623XXSP,2013-01-12 00:00:00,
2013-01-11 18:06:00,58.5,47.1,29.94,SSE,157,0.0,0.0,66,0.00,,,0.00,WUHU21623XXSP,2013-01-12 00:06:00,
2013-01-11 18:11:00,58.1,46.9,29.94,SSE,157,0.0,0.0,67,0.00,,,0.00,WUHU21623XXSP,2013-01-12 00:11:00,
2013-01-11 18:16:00,57.7,47.2,29.94,SSE,157,0.0,0.0,68,0.00,,,0.00,WUHU21623XXSP,2013-01-12 00:16:00,
2013-01-11 18:21:00,57.6,47.0,29.94,SSE,157,0.0,0.0,68,0.00,,,0.00,WUHU21623XXSP,2013-01-12 00:21:00,
2013-01-11 18:27:00,57.4,46.9,29.94,SSE,157,0.0,0.0,68,0.00,,,0.00,WUHU21623XXSP,2013-01-12 00:27:00,
2013-01-11 18:33:00,57.0,46.9,29.94,SE,135,0.0,0.0,69,0.00,,,0.00,WUHU21623XXSP,2013-01-12 00:33:00,
2013-01-11 18:38:00,57.0,47.3,29.93,ESE,112,0.0,2.9,70,0.00,,,0.00,WUHU21623XXSP,2013-01-12 00:38:00,
2013-01-11 18:43:00,56.8,47.2,29.93,ESE,112,0.0,0.9,70,0.00,,,0.00,WUHU21623XXSP,2013-01-12 00:43:00,
2013-01-11 18:48:00,56.8,47.2,29.93,ESE,112,0.0,0.0,70,0.00,,,0.00,WUHU21623XXSP,2013-01-12 00:48:00,
2013-01-11 18:53:00,56.8,47.2,29.93,ESE,112,0.7,0.7,71,0.00,,,0.00,WUHU21623XXSP,2013-01-12 00:53:00,
2013-01-11 18:59:00,56.5,47.2,29.93,ESE,112,0.9,0.9,71,0.00,,,0.00,WUHU21623XXSP,2013-01-12 00:59:00,
2013-01-11 19:04:00,56.5,47.5,29.93,East,90,2.7,2.7,72,0.00,,,0.00,WUHU21623XXSP,2013-01-12 01:04:00,
2013-01-11 19:09:00,56.5,47.9,29.93,SE,135,4.9,4.9,73,0.00,,,0.00,WUHU21623XXSP,2013-01-12 01:09:00,
2013-01-11 19:14:00,56.8,48.2,29.92,SE,135,4.9,4.9,74,0.00,,,0.00,WUHU21623XXSP,2013-01-12 01:14:00,
2013-01-11 19:19:00,57.0,48.7,29.93,ESE,112,1.1,4.9,74,0.00,,,0.00,WUHU21623XXSP,2013-01-12 01:19:00,
2013-01-11 19:24:00,57.4,49.1,29.93,SE,135,1.6,4.9,74,0.00,,,0.00,WUHU21623XXSP,2013-01-12 01:24:00,
2013-01-11 19:30:00,57.7,49.8,29.93,SSE,157,2.5,4.9,75,0.00,,,0.00,WUHU21623XXSP,2013-01-12 01:30:00,
2013-01-11 19:35:00,57.9,50.0,29.93,SE,135,2.0,4.0,75,0.00,,,0.00,WUHU21623XXSP,2013-01-12 01:35:00,
2013-01-11 19:40:00,58.1,50.2,29.93,SSE,157,4.0,4.0,75,0.00,,,0.00,WUHU21623XXSP,2013-01-12 01:40:00,
2013-01-11 19:46:00,58.3,50.4,29.93,SSE,157,1.8,4.0,75,0.00,,,0.00,WUHU21623XXSP,2013-01-12 01:46:00,
2013-01-11 19:51:00,58.3,50.4,29.93,South,180,0.0,1.8,75,0.00,,,0.00,WUHU21623XXSP,2013-01-12 01:51:00,
2013-01-11 19:56:00,58.5,50.5,29.93,South,180,1.6,1.6,75,0.00,,,0.00,WUHU21623XXSP,2013-01-12 01:56:00,
2013-01-11 20:01:00,58.5,50.5,29.93,SSE,157,1.1,2.2,75,0.00,,,0.00,WUHU21623XXSP,2013-01-12 02:01:00,
2013-01-11 20:06:00,58.5,50.5,29.93,South,180,2.7,2.7,75,0.00,,,0.00,WUHU21623XXSP,2013-01-12 02:06:00,
2013-01-11 20:11:00,58.3,50.9,29.93,SSE,157,5.1,5.1,76,0.00,,,0.00,WUHU21623XXSP,2013-01-12 02:11:00,
2013-01-11 20:16:00,58.3,50.7,29.93,SE,135,5.6,5.6,76,0.00,,,0.00,WUHU21623XXSP,2013-01-12 02:16:00,
2013-01-11 20:21:00,58.3,50.7,29.93,South,180,0.0,5.6,76,0.00,,,0.00,WUHU21623XXSP,2013-01-12 02:21:00,
2013-01-11 20:26:00,58.3,51.1,29.93,ESE,112,0.9,5.6,77,0.00,,,0.00,WUHU21623XXSP,2013-01-12 02:26:00,
2013-01-11 20:31:00,58.3,51.1,29.93,South,180,0.4,5.4,77,0.00,,,0.00,WUHU21623XXSP,2013-01-12 02:31:00,
2013-01-11 20:36:00,58.3,51.1,29.94,South,180,1.8,5.4,77,0.00,,,0.00,WUHU21623XXSP,2013-01-12 02:36:00,
2013-01-11 20:42:00,58.6,51.8,29.94,SSW,202,3.1,5.4,78,0.00,,,0.00,WUHU21623XXSP,2013-01-12 02:42:00,
2013-01-11 20:48:00,58.6,51.8,29.94,WSW,247,0.0,5.4,78,0.00,,,0.00,WUHU21623XXSP,2013-01-12 02:48:00,
2013-01-11 20:53:00,58.6,51.8,29.93,SE,135,1.8,2.0,78,0.00,,,0.00,WUHU21623XXSP,2013-01-12 02:53:00,
2013-01-11 20:59:00,58.8,52.0,29.93,SSE,157,1.1,1.8,78,0.00,,,0.00,WUHU21623XXSP,2013-01-12 02:59:00,
2013-01-11 21:04:00,58.8,52.3,29.94,South,180,0.0,2.2,79,0.00,,,0.00,WUHU21623XXSP,2013-01-12 03:04:00,
2013-01-11 21:09:00,58.8,52.7,29.93,South,180,2.5,2.5,80,0.00,,,0.00,WUHU21623XXSP,2013-01-12 03:09:00,
2013-01-11 21:15:00,58.8,52.7,29.93,South,180,6.9,6.9,80,0.00,,,0.00,WUHU21623XXSP,2013-01-12 03:15:00,
2013-01-11 21:20:00,58.8,52.7,29.93,South,180,1.1,6.9,80,0.00,,,0.00,WUHU21623XXSP,2013-01-12 03:20:00,
2013-01-11 21:26:00,58.8,53.0,29.93,SE,135,1.3,2.7,81,0.00,,,0.00,WUHU21623XXSP,2013-01-12 03:26:00,
2013-01-11 21:31:00,59.4,53.9,29.93,South,180,3.1,5.8,82,0.00,,,0.00,WUHU21623XXSP,2013-01-12 03:31:00,
2013-01-11 21:36:00,59.5,53.9,29.93,West,270,0.0,5.8,82,0.00,,,0.00,WUHU21623XXSP,2013-01-12 03:36:00,
2013-01-11 21:41:00,59.7,54.6,29.93,SW,225,2.0,3.6,83,0.00,,,0.00,WUHU21623XXSP,2013-01-12 03:41:00,
2013-01-11 21:47:00,59.7,54.6,29.94,SSE,157,3.6,3.6,83,0.00,,,0.00,WUHU21623XXSP,2013-01-12 03:47:00,
2013-01-11 21:52:00,59.9,54.8,29.94,SSW,202,4.5,4.7,83,0.00,,,0.00,WUHU21623XXSP,2013-01-12 03:52:00,
2013-01-11 21:57:00,60.1,55.3,29.94,South,180,3.8,4.7,84,0.00,,,0.00,WUHU21623XXSP,2013-01-12 03:57:00,
2013-01-11 22:02:00,60.1,55.3,29.94,SE,135,6.3,6.3,84,0.00,,,0.00,WUHU21623XXSP,2013-01-12 04:02:00,
2013-01-11 22:07:00,60.3,55.4,29.94,SSE,157,6.0,6.3,84,0.00,,,0.00,WUHU21623XXSP,2013-01-12 04:07:00,
2013-01-11 22:12:00,60.6,55.8,29.94,SE,135,6.3,6.3,84,0.00,,,0.00,WUHU21623XXSP,2013-01-12 04:12:00,
2013-01-11 22:18:00,60.6,55.8,29.94,South,180,6.0,6.3,84,0.00,,,0.00,WUHU21623XXSP,2013-01-12 04:18:00,
2013-01-11 22:23:00,60.6,55.8,29.93,SSE,157,6.3,6.9,84,0.00,,,0.00,WUHU21623XXSP,2013-01-12 04:23:00,
2013-01-11 22:28:00,60.6,55.8,29.93,SSE,157,3.8,6.9,84,0.00,,,0.00,WUHU21623XXSP,2013-01-12 04:28:00,
2013-01-11 22:33:00,61.0,56.5,29.94,SW,225,3.6,3.8,85,0.00,,,0.00,WUHU21623XXSP,2013-01-12 04:33:00,
2013-01-11 22:38:00,61.0,56.5,29.94,SE,135,7.4,7.4,85,0.00,,,0.00,WUHU21623XXSP,2013-01-12 04:38:00,
2013-01-11 22:43:00,61.0,56.5,29.93,SE,135,2.9,7.4,85,0.00,,,0.00,WUHU21623XXSP,2013-01-12 04:43:00,
2013-01-11 22:48:00,61.2,57.0,29.93,SSE,157,3.8,4.9,86,0.00,,,0.00,WUHU21623XXSP,2013-01-12 04:48:00,
2013-01-11 22:53:00,61.2,57.0,29.93,South,180,4.7,4.9,86,0.00,,,0.00,WUHU21623XXSP,2013-01-12 04:53:00,
2013-01-11 22:58:00,61.3,57.1,29.93,SE,135,1.1,10.3,86,0.00,,,0.00,WUHU21623XXSP,2013-01-12 04:58:00,
2013-01-11 23:00:00,61.3,57.1,29.93,SE,135,4.7,10.3,86,0.00,,,0.00,WUHU21623XXSP,2013-01-12 05:00:00,
2013-01-11 23:01:00,61.3,57.1,29.93,SE,135,2.5,10.3,86,0.00,,,0.00,WUHU21623XXSP,2013-01-12 05:01:00,
2013-01-11 23:03:00,61.3,57.1,29.93,SSW,202,5.8,10.3,86,0.00,,,0.00,WUHU21623XXSP,2013-01-12 05:03:00,
2013-01-11 23:04:00,61.3,57.1,29.93,SSW,202,5.8,5.8,86,0.00,,,0.00,WUHU21623XXSP,2013-01-12 05:04:00,
2013-01-11 23:09:00,61.3,57.1,29.93,South,180,2.7,6.7,86,0.00,,,0.00,WUHU21623XXSP,2013-01-12 05:09:00,
2013-01-11 23:14:00,61.3,57.1,29.93,SE,135,4.9,6.7,86,0.00,,,0.00,WUHU21623XXSP,2013-01-12 05:14:00,
2013-01-11 23:19:00,61.5,57.1,29.93,South,180,1.6,4.9,86,0.00,,,0.00,WUHU21623XXSP,2013-01-12 05:19:00,
2013-01-11 23:25:00,61.5,57.6,29.93,SSE,157,2.2,4.3,87,0.00,,,0.00,WUHU21623XXSP,2013-01-12 05:25:00,
2013-01-11 23:30:00,61.5,57.6,29.93,South,180,1.1,4.3,87,0.00,,,0.00,WUHU21623XXSP,2013-01-12 05:30:00,
2013-01-11 23:35:00,61.5,57.6,29.93,SSE,157,2.5,3.8,87,0.00,,,0.00,WUHU21623XXSP,2013-01-12 05:35:00,
2013-01-11 23:40:00,61.5,57.6,29.93,SSE,157,1.3,2.5,87,0.00,,,0.00,WUHU21623XXSP,2013-01-12 05:40:00,
2013-01-11 23:45:00,61.7,57.6,29.93,South,180,6.5,6.5,87,0.00,,,0.00,WUHU21623XXSP,2013-01-12 05:45:00,
2013-01-11 23:50:00,61.7,57.8,29.93,SSW,202,4.7,6.5,87,0.00,,,0.00,WUHU21623XXSP,2013-01-12 05:50:00,
2013-01-11 23:55:00,61.9,58.3,29.94,SE,135,5.4,5.4,88,0.00,,,0.00,WUHU21623XXSP,2013-01-12 05:55:00,